Huntingburg, IN

12:39 AM EDT on October 24, 2017 (GMT -0400)
Huntingburg

Weather History for KHNB - January, 2012

Change the Weather History Date:

Saturday, January 21, 2012

  Actual Average Record
Temperature  
Mean Temperature 29 °F -  
Max Temperature 32 °F 36 °F 66 °F (2017)
Min Temperature 26 °F 22 °F 1 °F (2011)
Degree Days  
Heating Degree Days 36    
Moisture  
Dew Point 26 °F    
Average Humidity 90    
Maximum Humidity 100    
Minimum Humidity 86    
Precipitation  
Precipitation 0.00 in - - ()
Sea Level Pressure  
Sea Level Pressure 30.06 in    
Wind  
Wind Speed 9 mph (NNE)    
Max Wind Speed 14 mph    
Max Gust Speed 17 mph    
Visibility 7 miles    
Events      
Averages and records for this station are not official NWS values.
T = Trace of Precipitation, MM = Missing Value Source: NWS Daily Summary

Daily Weather History Graph

Daily Weather History Graph

Search for Another Location

Airport or City:

Trip Planner

Search our weather history database for the weather conditions in past years. The results will help you decide how hot, cold, wet, or windy it might be!

Date:

Astronomy

Jan. 21, 2012 Rise Set
Actual Time 8:00 AM EST 5:57 PM EST
Civil Twilight 7:32 AM EST 6:26 PM EST
Nautical Twilight 7:00 AM EST 6:58 PM EST
Astronomical Twilight 6:28 AM EST 7:29 PM EST
Moon 6:30 AM EST (1/21) 4:33 PM EST (1/21)
Length of Visible Light 10h 53m
Length of Day
9h 56m
Waning Crescent, 3% of the Moon is Illuminated
Jan 21
Waning Crescent
Jan 23
New
Jan 30
First Quarter
Feb 7
Full
Feb 14
Last Quarter

Hourly Weather History & Observations

Time (EST) Temp. Windchill Dew Point Humidity Pressure Visibility Wind Dir Wind Speed Gust Speed Precip Events Conditions
12:15 AM 30.2 °F 21.9 °F 28.4 °F 93% 29.87 in 7.0 mi North 9.2 mph - N/A   Overcast
12:35 AM 30.2 °F 21.9 °F 28.4 °F 93% 29.88 in 10.0 mi North 9.2 mph 16.1 mph N/A   Overcast
12:55 AM 30.2 °F 21.9 °F 28.4 °F 93% 29.88 in 10.0 mi NNE 9.2 mph - N/A   Overcast
1:15 AM 30.2 °F 22.6 °F 28.4 °F 93% 29.87 in 9.0 mi NE 8.1 mph - N/A   Mostly Cloudy
1:35 AM 30.2 °F 25.4 °F 28.4 °F 93% 29.88 in 7.0 mi NNE 4.6 mph - N/A   Scattered Clouds
1:55 AM 30.2 °F 21.9 °F 30.2 °F 100% 29.90 in 7.0 mi NNW 9.2 mph - N/A   Overcast
2:15 AM 32.0 °F 23.0 °F 30.2 °F 93% 29.91 in 7.0 mi NNW 11.5 mph - N/A   Overcast
2:35 AM 30.2 °F 21.3 °F 28.4 °F 93% 29.89 in 3.0 mi North 10.4 mph 17.3 mph N/A   Overcast
2:55 AM 30.2 °F 20.2 °F 28.4 °F 93% 29.90 in 3.0 mi North 12.7 mph 17.3 mph N/A   Overcast
3:15 AM 30.2 °F 20.2 °F 28.4 °F 93% 29.90 in 3.0 mi NNW 12.7 mph 16.1 mph N/A   Overcast
3:35 AM 30.2 °F 21.9 °F 28.4 °F 93% 29.89 in 3.0 mi North 9.2 mph - N/A   Overcast
3:55 AM 30.2 °F 25.4 °F 28.4 °F 93% 29.89 in 3.0 mi North 4.6 mph - N/A   Overcast
4:15 AM 30.2 °F 21.9 °F 28.4 °F 93% 29.92 in 4.0 mi NNW 9.2 mph - N/A   Overcast
4:35 AM 30.2 °F 21.3 °F 28.4 °F 93% 29.94 in 5.0 mi NNW 10.4 mph - N/A   Overcast
4:55 AM 30.2 °F 20.8 °F 28.4 °F 93% 29.95 in 4.0 mi NNW 11.5 mph 16.1 mph N/A   Overcast
5:15 AM 28.4 °F 18.0 °F 28.4 °F 100% 29.97 in 4.0 mi NNW 12.7 mph - N/A   Overcast
5:35 AM 28.4 °F 18.5 °F 26.6 °F 93% 29.98 in 5.0 mi NNW 11.5 mph 16.1 mph N/A   Overcast
5:55 AM 28.4 °F 19.7 °F 26.6 °F 93% 29.98 in 6.0 mi North 9.2 mph 17.3 mph N/A   Overcast
6:15 AM 28.4 °F 19.7 °F 26.6 °F 93% 29.99 in 7.0 mi North 9.2 mph 17.3 mph N/A   Overcast
6:35 AM 28.4 °F 19.7 °F 26.6 °F 93% 29.99 in 7.0 mi North 9.2 mph 17.3 mph N/A   Overcast
6:55 AM 28.4 °F 19.1 °F 26.6 °F 93% 30.00 in 5.0 mi North 10.4 mph - N/A   Overcast
7:15 AM 28.4 °F 19.7 °F 24.8 °F 86% 30.02 in 5.0 mi North 9.2 mph - N/A   Overcast
7:35 AM 28.4 °F 21.2 °F 24.8 °F 86% 30.04 in 5.0 mi NNW 6.9 mph - N/A   Overcast
7:55 AM 26.6 °F 18.2 °F 24.8 °F 93% 30.04 in 5.0 mi North 8.1 mph - N/A   Overcast
8:15 AM 26.6 °F 20.0 °F 24.8 °F 93% 30.04 in 4.0 mi North 5.8 mph - N/A   Mostly Cloudy
8:35 AM 28.4 °F 21.2 °F 24.8 °F 86% 30.06 in 4.0 mi North 6.9 mph - N/A   Mostly Cloudy
8:55 AM 28.4 °F 19.7 °F 24.8 °F 86% 30.08 in 5.0 mi North 9.2 mph - N/A   Mostly Cloudy
9:15 AM 28.4 °F 17.5 °F 24.8 °F 86% 30.10 in 9.0 mi NNE 13.8 mph - N/A   Overcast
9:35 AM 28.4 °F 19.1 °F 24.8 °F 86% 30.10 in 10.0 mi NNE 10.4 mph - N/A   Overcast
9:55 AM 28.4 °F 20.4 °F 24.8 °F 86% 30.12 in 9.0 mi NNE 8.1 mph - N/A   Overcast
10:15 AM 28.4 °F 21.2 °F 24.8 °F 86% 30.13 in 9.0 mi North 6.9 mph - N/A   Overcast
10:35 AM 28.4 °F 19.7 °F 24.8 °F 86% 30.14 in 9.0 mi North 9.2 mph - N/A   Overcast
10:55 AM 28.4 °F 20.4 °F 24.8 °F 86% 30.14 in 9.0 mi NNE 8.1 mph - N/A   Overcast
11:15 AM 28.4 °F 19.7 °F 24.8 °F 86% 30.15 in 8.0 mi North 9.2 mph - N/A   Overcast
11:35 AM 28.4 °F 21.2 °F 24.8 °F 86% 30.15 in 8.0 mi North 6.9 mph - N/A   Overcast
11:55 AM 28.4 °F 19.1 °F 24.8 °F 86% 30.15 in 9.0 mi NNE 10.4 mph - N/A   Overcast
12:15 PM 28.4 °F 19.1 °F 24.8 °F 86% 30.16 in 8.0 mi North 10.4 mph - N/A   Overcast
12:35 PM 28.4 °F 19.7 °F 24.8 °F 86% 30.15 in 6.0 mi NNE 9.2 mph - N/A   Overcast
12:55 PM 28.4 °F 18.0 °F 24.8 °F 86% 30.14 in 5.0 mi North 12.7 mph - N/A   Overcast
1:15 PM 28.4 °F 19.1 °F 24.8 °F 86% 30.14 in 6.0 mi North 10.4 mph 16.1 mph N/A   Overcast
1:35 PM 28.4 °F 18.5 °F 24.8 °F 86% 30.13 in 6.0 mi NNE 11.5 mph - N/A   Overcast
1:55 PM 28.4 °F 19.7 °F 24.8 °F 86% 30.13 in 8.0 mi NNE 9.2 mph - N/A   Overcast
2:15 PM 28.4 °F 20.4 °F 26.6 °F 93% 30.13 in 9.0 mi NNE 8.1 mph - N/A   Overcast
2:35 PM 28.4 °F 19.1 °F 24.8 °F 86% 30.13 in 10.0 mi ENE 10.4 mph - N/A   Overcast
2:55 PM 28.4 °F 19.1 °F 24.8 °F 86% 30.14 in 10.0 mi NE 10.4 mph - N/A   Overcast
3:15 PM 28.4 °F 19.1 °F 24.8 °F 86% 30.14 in 10.0 mi NE 10.4 mph - N/A   Overcast
3:55 PM 28.4 °F 19.1 °F 24.8 °F 86% 30.15 in 10.0 mi NE 10.4 mph - N/A   Overcast
4:15 PM 28.4 °F 20.4 °F 24.8 °F 86% 30.15 in 10.0 mi NE 8.1 mph - N/A   Overcast
4:35 PM 28.4 °F 19.1 °F 24.8 °F 86% 30.16 in 10.0 mi ENE 10.4 mph - N/A   Overcast
4:55 PM 26.6 °F 15.7 °F 24.8 °F 93% 30.16 in 10.0 mi ENE 12.7 mph - N/A   Overcast
5:15 PM 26.6 °F 16.8 °F 24.8 °F 93% 30.15 in 7.0 mi ENE 10.4 mph - N/A   Overcast
6:15 PM 26.6 °F 20.0 °F 24.8 °F 93% 30.16 in 6.0 mi ENE 5.8 mph - N/A   Overcast
6:35 PM 26.6 °F 18.2 °F 24.8 °F 93% 30.17 in 7.0 mi ENE 8.1 mph - N/A   Overcast
6:55 PM 26.6 °F 17.5 °F 24.8 °F 93% 30.17 in 8.0 mi East 9.2 mph - N/A   Overcast
7:15 PM 26.6 °F 18.2 °F 24.8 °F 93% 30.18 in 8.0 mi ENE 8.1 mph - N/A   Overcast
7:35 PM 26.6 °F 18.2 °F 24.8 °F 93% 30.19 in 8.0 mi ENE 8.1 mph - N/A   Overcast
7:55 PM 26.6 °F 19.1 °F 24.8 °F 93% 30.18 in 7.0 mi East 6.9 mph - N/A   Overcast
8:35 PM 26.6 °F 18.2 °F 24.8 °F 93% 30.17 in 7.0 mi East 8.1 mph - N/A   Overcast
8:55 PM 26.6 °F 18.2 °F 24.8 °F 93% 30.18 in 7.0 mi ESE 8.1 mph - N/A   Overcast
9:15 PM 26.6 °F 19.1 °F 24.8 °F 93% 30.18 in 6.0 mi East 6.9 mph - N/A   Overcast
9:35 PM 26.6 °F 18.2 °F 24.8 °F 93% 30.18 in 7.0 mi East 8.1 mph - N/A   Overcast
10:15 PM 26.6 °F 15.7 °F 24.8 °F 93% 30.17 in 7.0 mi East 12.7 mph - N/A   Overcast
10:35 PM 26.6 °F 16.8 °F 24.8 °F 93% 30.16 in 7.0 mi East 10.4 mph - N/A   Overcast
10:55 PM 26.6 °F 18.2 °F 24.8 °F 93% 30.17 in 7.0 mi East 8.1 mph - N/A   Overcast
11:15 PM 26.6 °F 17.5 °F 24.8 °F 93% 30.17 in 7.0 mi East 9.2 mph - N/A   Overcast
11:35 PM 26.6 °F 18.2 °F 24.8 °F 93% 30.15 in 7.0 mi ESE 8.1 mph - N/A   Overcast
11:55 PM 28.4 °F 19.7 °F 24.8 °F 86% 30.15 in 7.0 mi ESE 9.2 mph - N/A   Overcast